Regional Weather Roundup
Issued by NWS

Home | Current Version | Previous Version | Graphics & Text | Print | Product List | Glossary On
Versions: 1 2 3 4 5 6 7 8 9 10 11 12 13 14 15 16 17 18 19 20 21 22 23 24 25 26 27 28 29 30 31 32 33 34 35 36 37 38 39 40 41 42 43 44 45 46 47 48 49 50
000
ASUS43 KOAX 210210
RWRNE

WEATHER ROUNDUP FOR NEBRASKA
NATIONAL WEATHER SERVICE OMAHA NE
900 PM CDT MON APR 20 2015

NOTES: SATELLITE DATA IS BEING USED TO AUGMENT CLOUD COVER ABOVE
       12000 FEET.
       "FAIR" INDICATES FEW OR NO CLOUDS BELOW 12,000 FEET WITH NO
       SIGNIFICANT WEATHER AND/OR OBSTRUCTIONS TO VISIBILITY.

  * THESE STATIONS DO NOT REPORT WEATHER SUCH AS RAIN...SNOW OR FOG.

NEZ001>004-019>022-054>056-210300-
NEBRASKA PANHANDLE

CITY           SKY/WX    TMP DP  RH WIND       PRES   REMARKS
SCOTTSBLUFF    PTCLDY    46  26  45 N7        29.86R
ALLIANCE       CLEAR     44  24  45 N10       29.84S
CHADRON        CLEAR     42  25  50 NE8       29.85R
KIMBALL        CLEAR     42  29  61 W7        29.87S
SIDNEY         CLEAR     45  27  49 NW5       29.88S
$$

NEZ057>060-069>072-079>082-210300-
SOUTHWEST NEBRASKA

CITY           SKY/WX    TMP DP  RH WIND       PRES   REMARKS
NORTH PLATTE   PTCLDY    45  27  49 NW6       29.85R
IMPERIAL       CLEAR     48  26  42 NW5       29.87R
LEXINGTON      PTCLDY    46  32  58 NW3       29.85R
MCCOOK         PTCLDY    51  27  39 W6        29.86R
OGALLALA       CLEAR     41  29  63 NW5       29.86R
$$

NEZ005>010-023>029-035>040-094-210300-
NORTH CENTRAL NEBRASKA

CITY           SKY/WX    TMP DP  RH WIND       PRES   REMARKS
VALENTINE      CLOUDY    48  21  34 NW10      29.83R
AINSWORTH      CLOUDY    48  22  36 NW9       29.83R
BROKEN BOW     CLEAR     44  25  47 N9        29.83R
O`NEILL        MOCLDY    46  19  34 NW10      29.80S
ORD            MOCLDY    43  27  53 NW7       29.82R
THEDFORD       PTCLDY    45  26  46 N6        29.85R
$$

NEZ041-046>049-061>064-073>077-083>087-210300-
SOUTH CENTRAL NEBRASKA

CITY           SKY/WX    TMP DP  RH WIND       PRES   REMARKS
GRAND ISLAND   CLEAR     44  29  55 W7        29.84R
AURORA         CLEAR     40  26  56 W7        29.83R
HASTINGS       CLEAR     46  30  53 NW7       29.84R
HEBRON         CLEAR     49  23  36 W3        29.84R
HOLDREGE       PTCLDY    46  30  53 CALM      29.85R
KEARNEY *      CLEAR     48  30  49 NW3       29.85R
YORK           CLEAR     45  30  57 W9        29.82S
$$

NEZ011>018-030>034-042>045-210300-
NORTHEAST NEBRASKA

CITY           SKY/WX    TMP DP  RH WIND       PRES   REMARKS
NORFOLK        CLEAR     47  15  27 NW8       29.78R
ALBION         PTCLDY    44  19  36 NW5       29.81R
BLAIR          CLEAR     48  17  29 NW6       29.78R
COLUMBUS *     PTCLDY    46  21  36 W7        29.81S
FREMONT        CLEAR     44  27  51 W7        29.79R
TEKAMAH        CLEAR     49  19  30 W12       29.76R
WAYNE          CLEAR     47   9  21 NW12      29.77R
$$

NEZ050>053-065>068-078-088>093-210300-
SOUTHEAST NEBRASKA

CITY           SKY/WX    TMP DP  RH WIND       PRES   REMARKS
LINCOLN        PTCLDY    52  23  32 W6        29.82R
OMAHA EPPLEY   PTCLDY    51  20  29 NW12      29.77R
BEATRICE       PTCLDY    47  28  45 W7        29.83R
FALLS CITY     PTCLDY    50  26  39 W9        29.81R
NEBRASKA CITY  CLEAR     47  18  30 W9        29.80R
PLATTSMOUTH    CLEAR     48  19  32 W6        29.79R
$$

NEZ044-045-051>053-067-210300-
OMAHA AREA

CITY           SKY/WX    TMP DP  RH WIND       PRES   REMARKS
OMAHA EPPLEY   PTCLDY    51  20  29 NW12      29.77R
BLAIR          CLEAR     48  17  29 NW6       29.78R
FREMONT        CLEAR     44  27  51 W7        29.79R
MILLARD        CLEAR     51  21  31 NW5       29.78R
OFFUTT AFB     CLEAR     47  22  38 NW8       29.77R
PLATTSMOUTH    CLEAR     48  19  32 W6        29.79R
WAHOO          FAIR      47  22  36 NW7       29.80R
$$



USA.gov is the U.S. government's official web portal to all federal, state and local government web resources and services.